Hourly Data Report for September 01, 2015

IQALUIT CLIMATE
NUNAVUT

63°44'50.000" N
68°32'40.000" W
33.50 m
2402592
71321
XFB

Download Data

Hourly Data (September 2015)
Hourly Data Report for September 1, 2015
TIME
LST
Temp Definition
°C
Dew Point Definition
°C
Rel Hum Definition
%
Precip. Amount Definition
mm

Wind Dir Definition
10's deg

Wind Spd Definition
km/h
Visibility Definition
km
Stn Press Definition
kPa
Hmdx Definition


Wind Chill Definition


Weather Definition


00:00 2.3 1.5 94 0.0 2 2   101.42     LegendNANA
01:00 2.1 1.3 95 0.0 11 2   101.41     LegendNANA
02:00 1.7 0.9 95 0.0 32 7   101.45     LegendNANA
03:00 0.9 0.0 94 0.0 33 3   101.48     LegendNANA
04:00 0.7 0.0 95 0.0 23 2   101.49     LegendNANA
05:00 0.8 0.1 95 0.0 34 7   101.52     LegendNANA
06:00 2.9 2.0 94 0.2 35 5   101.52     LegendNANA
07:00 3.9 1.8 86 0.0 15 3   101.50     LegendNANA
08:00 4.5 1.9 83 0.0 15 4   101.49     LegendNANA
09:00 4.8 1.8 81 0.0 15 6   101.47     LegendNANA
10:00 3.8 1.1 83 0.0 16 9   101.40     LegendNANA
11:00 4.9 2.4 84 0.0 14 9   101.40     LegendNANA
12:00 4.5 1.9 83 0.0 14 7   101.40     LegendNANA
13:00 5.9 2.4 78 0.0 15 7   101.34     LegendNANA
14:00 5.7 2.2 78 0.0 15 9   101.30     LegendNANA
15:00 5.9 2.0 76 0.0 15 8   101.29     LegendNANA
16:00 6.5 2.4 75 0.0 15 6   101.27     LegendNANA
17:00 5.2 2.2 81 0.0 16 7   101.27     LegendNANA
18:00 4.4 1.5 82 0.0 17 5   101.28     LegendNANA
19:00 2.1 0.5 89 0.0 14 7   101.32     LegendNANA
20:00 1.6 0.2 90 0.0 13 4   101.32     LegendNANA
21:00 1.9 0.4 90 0.0 14 8   101.30     LegendNANA
22:00 1.6 0.2 90 0.0 15 5   101.30     LegendNANA
23:00 1.8 0.5 91 0.0   0   101.30     LegendNANA

Notes on Data Quality.

Legend

  • E = Estimated
  • M = Missing
  • NA = Not Available*
  • [empty] = Indicates an unobserved value
Date modified: